Location: Glencliff
(36.1226°N, 86.7183°W)
Time: 04:02:59
(UTC+00:00)

H-2A R/B - Pass Details

Date: 25 August 2019
Orbit: 733 x 837 km, 98.3° (Epoch: 18 September)

Event Time Altitude Azimuth Distance (km) Brightness Sun altitude
Exits shadow 03:01:15 12° 224° (SW) 2,133 4.3 -28.6°
Maximum altitude 03:04:18 20° 265° (W) 1,690 4.2 -29.0°
Drops below altitude 10° 03:07:54 10° 312° (NW) 2,260 5.4 -29.6°
Sets 03:10:47 0° 330° (NNW) 3,177 6.3 -30.0°
